Wind_Speed
7 6 6 5 2 1 6 9 9 8 7 7 7 5 8 8 5 10 25 25 35 37 34 33 31 29 26 22 20 20 19 17 15 13 12 11 12 12 12 12 11 11 10 9 9 9 9 9 7
7 7 6 5 2 2 8 7 8 8 9 9 12 10 10 9 8 26 34 30 34 33 34 33 31 27 24 21 20 20 18 16 13 12 11 11 12 12 12 12 12 12 11 10 9 9 11 13 14
5 5 6 6 2 10 8 8 9 8 9 9 7 11 7 9 19 25 31 35 34 34 33 31 29 26 23 20 19 19 17 15 13 11 11 11 12 12 12 13 12 11 11 10 10 9 10 12 12
1 4 2 3 3 8 10 8 6 7 7 5 11 9 9 13 15 26 31 33 35 34 34 31 28 25 22 19 18 18 16 13 12 11 11 11 11 11 11 11 10 10 11 11 11 9 9 10 11
4 3 10 8 6 9 7 7 6 6 6 9 4 8 12 17 19 27 30 33 33 34 33 30 27 24 21 18 18 17 15 13 11 11 11 11 10 11 11 10 9 9 10 10 10 11 11 10 9
2 2 3 2 8 6 6 8 7 6 8 7 6 9 13 17 23 28 30 32 32 31 30 29 26 23 20 17 17 16 15 13 11 11 11 11 10 10 10 8 7 8 8 8 9 9 9 10 11
4 8 14 2 6 9 6 8 5 5 7 8 8 11 19 21 26 28 30 31 27 28 28 27 25 22 19 17 16 15 14 12 12 11 11 11 11 10 10 8 7 7 7 8 9 10 9 9 11
11 11 15 3 8 12 9 7 7 7 9 14 9 8 24 28 29 29 31 29 28 23 26 26 24 21 18 16 16 15 13 12 11 10 10 10 10 9 8 7 7 7 6 8 9 10 11 10 12
11 12 3 4 10 14 12 9 8 8 13 10 5 9 21 28 33 32 34 31 32 23 27 26 24 21 18 17 16 14 12 11 11 10 10 8 10 7 9 7 6 6 7 6 9 11 11 11 13
16 7 8 5 6 9 12 7 7 8 10 11 14 16 17 30 33 32 31 30 28 24 25 26 24 20 19 18 16 14 12 11 11 9 9 3 7 6 4 6 6 5 6 7 9 10 11 13 8
14 12 12 5 5 4 11 8 8 7 10 12 14 9 14 25 29 28 28 28 26 23 23 23 24 22 20 17 17 14 12 11 9 10 8 5 4 4 6 8 7 5 6 5 5 8 5 5 9
18 12 6 5 5 5 8 13 8 6 9 13 14 7 9 21 23 25 27 26 23 24 25 24 24 24 23 20 18 15 12 9 7 8 6 5 7 2 5 5 9 6 6 3 4 2 6 3 8
21 12 13 8 7 7 6 7 11 7 10 13 15 9 13 22 23 22 22 22 23 25 25 25 25 24 23 21 20 15 13 10 9 7 5 3 6 3 3 1 2 6 4 5 4 6 5 3 7
18 19 15 15 12 9 11 12 12 12 12 14 7 10 17 25 24 24 25 25 24 24 25 25 25 24 23 21 18 16 14 12 8 6 4 2 2 4 6 4 5 4 5 4 6 5 5 5 5
25 16 21 19 17 13 14 15 15 16 16 17 10 8 20 23 25 26 26 26 26 24 25 25 24 24 23 20 18 15 13 10 8 6 5 5 4 5 3 2 3 6 3 6 4 4 4 5 12
26 24 23 22 19 18 18 21 20 17 19 19 19 11 12 23 27 26 26 26 26 25 25 25 25 24 23 21 19 17 14 11 8 8 8 7 6 5 4 5 2 5 6 6 5 5 3 4 12
27 28 29 24 23 20 21 15 26 22 18 19 21 20 15 16 26 27 27 26 26 26 27 26 27 26 23 21 19 16 14 12 10 9 9 8 6 7 5 4 2 6 7 6 5 2 4 11 3
32 32 28 27 26 26 21 18 9 21 17 18 19 22 22 19 19 27 27 27 28 29 28 28 28 26 24 22 20 17 15 13 12 9 9 7 8 8 7 5 5 5 4 7 5 5 8 6 1
28 27 30 28 24 25 25 23 18 17 19 17 19 24 24 23 22 25 27 28 29 30 30 30 29 27 25 23 20 17 15 14 12 11 10 9 9 9 7 6 8 5 6 4 5 5 5 7 3
33 30 28 27 25 22 25 26 25 20 20 21 20 24 25 24 25 25 24 29 30 31 31 31 29 27 25 23 20 18 17 15 13 13 12 10 10 8 9 8 5 5 9 4 2 4 3 5 3
37 35 30 26 26 26 23 26 25 25 21 22 19 23 23 28 28 25 21 28 30 32 31 30 29 27 25 24 22 20 19 17 15 14 13 11 11 10 10 9 10 7 9 6 3 1 5 3 3
37 35 30 25 28 28 29 26 29 26 27 25 22 24 25 28 29 24 21 23 28 28 29 30 28 27 26 25 23 21 18 17 15 13 13 12 12 12 12 11 11 11 13 11 7 4 5 4 4
35 28 32 29 27 25 26 33 30 29 33 29 26 24 25 27 30 30 20 17 23 27 29 29 28 28 26 25 23 21 20 18 16 16 15 14 13 14 14 14 13 14 16 15 10 6 5 7 7
28 27 27 30 31 28 36 31 29 27 32 33 26 27 25 28 30 30 25 17 23 27 30 32 31 30 28 26 24 21 20 19 18 17 15 14 15 14 14 14 15 16 19 20 15 9 6 5 7
30 29 22 21 25 18 37 37 36 27 26 26 28 28 27 28 30 31 32 29 21 28 32 34 33 30 29 27 26 23 22 21 20 19 18 17 15 15 14 13 15 18 21 23 18 13 8 5 4
36 38 28 22 19 20 35 40 43 34 19 29 26 28 28 27 31 32 33 31 23 21 27 29 30 30 31 29 26 24 22 22 22 20 20 19 17 15 16 14 17 19 24 25 23 18 13 9 5
36 47 40 31 30 22 33 35 34 32 36 30 25 30 30 30 30 32 33 33 25 24 17 26 29 30 30 28 27 25 25 24 23 22 21 21 19 18 18 18 19 20 24 26 25 21 18 15 11
39 36 37 37 22 20 21 21 31 29 31 37 34 28 32 29 30 32 32 33 29 25 23 18 19 28 29 29 28 28 28 27 27 25 24 24 22 20 21 19 21 21 25 27 27 24 21 19 16
47 38 44 34 31 15 12 13 24 26 25 30 33 37 30 32 29 31 31 32 25 25 28 28 23 19 22 27 25 25 27 30 29 29 28 27 25 24 24 23 22 21 26 29 28 27 25 22 20
38 41 41 34 33 34 19 2 4 16 18 20 31 28 32 29 30 28 32 31 31 31 29 27 26 24 23 24 23 22 20 21 25 30 31 29 29 28 26 27 23 23 24 29 31 29 28 26 24
Wind_Direction
43 76 81 83 9 194 56 84 103 93 87 103 128 105 125 137 139 143 152 145 154 151 149 145 139 136 132 130 128 134 134 127 125 115 105 99 94 91 92 94 94 94 98 98 96 90 82 89 89
60 82 93 109 37 134 95 90 93 99 106 127 112 95 111 64 145 142 146 147 153 152 149 146 140 138 135 131 132 138 132 130 127 115 106 100 93 91 90 91 93 94 96 93 99 99 81 80 80
39 74 46 308 254 88 85 106 110 110 118 108 116 143 116 74 127 146 146 146 150 151 152 147 143 140 137 134 136 137 133 132 125 116 108 100 94 93 93 91 90 92 91 87 87 96 91 81 73
48 75 309 195 18 76 79 99 117 119 122 117 126 106 132 115 135 146 148 152 153 152 151 147 144 143 139 137 134 134 135 131 126 122 112 103 97 95 90 86 90 86 82 76 75 79 77 64 62
137 148 255 252 120 68 80 107 112 100 121 136 194 124 146 142 147 149 148 152 151 150 151 150 148 146 143 139 133 135 135 132 128 119 107 102 95 90 87 89 85 76 69 66 69 72 69 61 56
14 224 59 185 82 82 84 114 116 119 122 135 206 187 157 155 153 156 152 154 152 152 154 155 151 151 147 141 137 139 135 136 126 113 107 104 97 93 93 95 92 80 70 67 71 62 52 52 46
236 276 278 337 91 99 109 116 115 133 128 120 145 142 160 159 155 161 161 158 153 159 160 159 157 155 151 145 145 142 140 133 120 115 116 104 96 92 90 85 80 74 71 74 70 55 48 44 35
267 268 295 182 113 106 123 122 114 113 136 126 116 178 158 161 157 165 165 160 144 174 166 166 165 161 154 153 152 149 142 129 121 120 111 108 102 91 85 74 73 61 70 67 62 50 46 38 27
267 258 205 221 79 126 120 106 126 134 132 132 114 162 157 158 160 166 170 167 157 172 172 172 170 165 162 161 160 154 143 134 132 126 116 109 98 85 75 65 69 55 60 58 48 38 31 35 34
236 262 199 165 127 138 133 108 107 130 140 135 120 158 164 164 167 172 175 172 172 169 171 175 174 173 168 170 168 159 151 146 141 127 125 18 96 86 106 69 60 52 44 42 37 34 43 38 20
243 241 290 156 170 155 136 150 112 125 148 151 148 164 168 171 174 181 179 180 175 176 171 178 178 178 175 181 172 166 161 157 152 156 148 157 129 98 62 50 31 52 53 39 10 45 21 67 1
235 241 253 162 156 179 151 161 143 122 151 170 168 146 169 179 180 184 184 186 172 183 173 185 185 181 183 180 176 172 173 169 157 148 159 142 87 105 113 83 40 31 61 14 4 335 7 199 348
228 231 220 224 210 190 206 172 170 162 141 157 168 178 173 177 178 181 182 185 185 185 181 192 189 186 187 180 180 176 179 182 174 174 171 153 148 146 144 166 115 30 9 20 351 311 9 3 341
226 228 227 219 213 208 190 194 189 183 162 165 154 168 179 179 182 183 184 192 190 189 190 193 189 189 188 187 182 183 183 188 192 198 203 210 192 168 183 131 174 206 303 337 358 315 337 344 342
219 229 223 219 212 214 203 201 196 188 182 180 187 164 182 185 187 190 189 195 193 195 195 194 191 193 190 191 188 190 195 199 201 220 230 230 220 191 151 52 60 310 326 316 346 327 353 21 299
223 223 219 217 212 210 200 208 193 191 186 187 187 194 186 192 192 193 195 197 200 199 198 196 195 198 195 195 194 196 201 209 216 233 243 240 233 215 181 102 255 288 326 326 338 345 21 353 326
215 218 221 219 213 205 210 227 211 188 189 195 194 195 200 195 195 197 198 202 205 205 202 197 198 200 199 200 200 203 210 216 224 233 245 235 243 232 200 209 252 289 310 316 311 330 326 321 1
212 215 217 218 203 207 212 226 177 184 198 202 204 201 197 205 201 200 198 201 205 207 204 201 201 201 201 204 205 208 218 222 230 236 244 248 225 226 223 227 280 249 340 299 296 294 313 300 289
218 215 222 212 206 203 216 216 203 201 200 208 208 205 202 202 200 200 202 206 205 207 206 203 203 202 204 207 209 215 224 229 235 240 240 236 231 233 235 217 246 259 287 269 277 303 328 339 23
220 226 217 220 208 210 216 220 217 226 212 210 213 209 202 200 201 202 208 207 211 210 207 206 205 205 207 211 213 219 224 229 229 231 233 231 233 237 236 240 224 256 251 236 281 350 313 20 54
219 221 223 217 217 220 222 226 223 225 222 213 214 213 204 202 200 210 215 211 213 213 211 210 207 208 210 214 216 218 222 223 225 229 235 234 238 240 246 244 246 218 248 215 203 88 34 133 56
219 217 222 223 223 214 217 233 219 220 214 212 211 210 212 202 203 212 219 220 214 214 211 212 210 212 214 217 219 219 221 224 228 234 240 240 233 242 241 243 241 240 227 213 187 142 79 61 109
219 216 219 223 231 238 228 222 235 211 214 213 214 213 215 210 205 204 229 229 221 213 211 210 211 214 218 220 223 222 221 222 224 230 236 238 244 246 251 251 242 238 230 203 186 156 118 94 93
213 215 219 222 229 238 229 233 224 221 214 217 215 214 214 213 207 205 211 222 216 215 214 212 212 214 215 216 218 220 221 224 229 233 239 242 248 249 247 254 252 235 227 211 189 177 149 118 105
205 203 207 218 217 226 228 231 231 225 221 219 218 215 213 211 206 205 203 203 213 215 215 217 215 216 217 218 218 219 220 222 229 236 238 243 245 255 257 247 250 232 222 213 205 196 188 165 130
207 204 209 210 216 222 228 230 231 227 226 225 219 216 213 211 206 206 205 208 219 219 217 220 221 218 220 222 223 225 225 226 232 236 242 245 249 252 257 248 251 231 219 216 211 209 208 206 203
206 212 211 231 221 234 220 228 238 231 227 223 219 214 210 211 205 205 206 205 222 225 218 222 223 221 225 227 228 230 232 233 238 243 245 250 249 248 252 251 249 239 222 218 214 214 215 221 225
212 214 213 225 248 224 233 241 216 217 221 219 217 209 205 209 209 206 205 208 215 226 228 226 225 225 225 229 232 233 235 236 240 242 246 250 251 249 252 248 244 240 226 222 218 217 219 225 231
205 211 213 221 227 241 241 241 232 218 214 220 214 214 208 207 209 207 207 209 211 217 223 224 225 221 216 222 228 233 237 239 238 243 244 248 250 249 246 251 242 239 232 227 224 221 226 227 233
211 209 206 219 216 231 252 159 123 190 217 218 209 206 203 205 209 209 207 206 212 217 219 219 222 224 222 217 219 222 226 230 237 242 246 245 252 256 251 251 245 244 239 232 231 228 232 234 238
Height
3155 3154 3154 3153 3158 3153 3151 3152 3152 3153 3154 3153 3154 3156 3156 3157 3158 3163 3163 3167 3170 3174 3178 3180 3183 3186 3189 3191 3194 3196 3197 3198 3200 3201 3202 3203 3203 3204 3203 3204 3204 3204 3204 3204 3203 3203 3202 3202 3201
3156 3155 3155 3154 3155 3153 3151 3152 3154 3153 3155 3155 3158 3158 3158 3157 3157 3159 3163 3168 3174 3177 3180 3183 3185 3189 3192 3194 3196 3198 3199 3201 3202 3203 3204 3205 3205 3205 3206 3206 3206 3206 3206 3206 3205 3205 3204 3204 3203
3157 3155 3157 3155 3154 3153 3152 3153 3155 3157 3158 3157 3158 3157 3159 3159 3159 3163 3167 3168 3174 3178 3182 3185 3188 3192 3194 3196 3198 3200 3201 3203 3205 3206 3207 3207 3207 3207 3208 3207 3207 3208 3208 3208 3208 3207 3206 3206 3205
3157 3157 3159 3154 3152 3153 3153 3156 3157 3157 3158 3159 3159 3159 3161 3162 3162 3165 3168 3172 3174 3179 3184 3188 3190 3194 3196 3198 3200 3201 3203 3205 3206 3208 3208 3209 3209 3210 3210 3210 3210 3210 3210 3210 3210 3209 3209 3209 3208
3158 3156 3159 3155 3154 3154 3155 3157 3158 3157 3160 3161 3158 3159 3161 3163 3165 3168 3171 3175 3178 3182 3186 3189 3193 3196 3198 3200 3202 3203 3205 3207 3208 3209 3210 3211 3212 3212 3212 3213 3212 3212 3213 3212 3212 3212 3212 3211 3211
3158 3158 3156 3154 3152 3154 3156 3159 3160 3160 3161 3160 3158 3158 3162 3165 3167 3171 3174 3178 3181 3185 3188 3192 3194 3197 3200 3202 3203 3205 3207 3209 3210 3211 3212 3213 3214 3214 3215 3215 3214 3215 3215 3214 3214 3214 3214 3213 3212
3157 3159 3152 3153 3153 3155 3158 3160 3161 3162 3162 3163 3158 3158 3162 3165 3169 3173 3177 3180 3183 3188 3190 3193 3196 3199 3201 3203 3205 3207 3209 3211 3212 3213 3214 3215 3215 3216 3216 3217 3217 3216 3216 3216 3216 3216 3215 3214 3214
3159 3160 3156 3151 3153 3157 3160 3161 3163 3164 3164 3162 3161 3161 3162 3164 3169 3175 3179 3181 3187 3190 3193 3195 3197 3200 3202 3205 3207 3209 3211 3212 3213 3215 3216 3217 3218 3218 3218 3218 3218 3218 3218 3219 3218 3217 3216 3215 3215
3158 3158 3159 3150 3151 3155 3160 3162 3164 3164 3163 3165 3166 3162 3164 3167 3171 3175 3179 3183 3186 3192 3193 3196 3199 3201 3203 3206 3208 3211 3213 3214 3215 3217 3218 3218 3218 3220 3220 3221 3220 3220 3220 3220 3220 3219 3218 3217 3216
3158 3161 3154 3155 3155 3157 3159 3163 3165 3166 3166 3167 3169 3166 3166 3169 3172 3175 3179 3182 3187 3192 3194 3197 3199 3202 3205 3207 3210 3212 3214 3215 3216 3218 3220 3210 3220 3221 3223 3223 3222 3222 3221 3221 3221 3220 3219 3219 3217
3159 3161 3151 3157 3156 3158 3157 3162 3166 3167 3168 3169 3168 3167 3168 3170 3174 3177 3181 3185 3189 3194 3197 3199 3200 3202 3206 3208 3210 3213 3214 3215 3217 3218 3220 3222 3222 3222 3223 3223 3224 3223 3223 3222 3223 3221 3221 3219 3216
3158 3159 3156 3158 3159 3159 3158 3161 3166 3168 3169 3170 3169 3168 3170 3173 3174 3177 3182 3185 3191 3194 3198 3200 3200 3202 3205 3208 3211 3214 3215 3216 3218 3219 3220 3221 3223 3224 3224 3223 3223 3224 3224 3224 3223 3223 3221 3219 3221
3157 3157 3158 3158 3161 3161 3160 3161 3163 3169 3170 3170 3169 3169 3170 3175 3180 3183 3186 3189 3192 3193 3197 3199 3199 3202 3205 3208 3210 3214 3216 3217 3219 3219 3220 3222 3223 3224 3223 3226 3225 3224 3225 3224 3224 3223 3222 3221 3220
3155 3156 3157 3158 3160 3161 3162 3162 3166 3167 3169 3170 3168 3168 3170 3174 3179 3184 3187 3190 3191 3192 3195 3198 3199 3202 3205 3208 3210 3213 3216 3218 3219 3220 3221 3222 3223 3224 3225 3225 3226 3224 3225 3225 3224 3223 3221 3220 3220
3153 3154 3155 3156 3158 3159 3161 3160 3163 3163 3167 3168 3167 3168 3171 3173 3178 3181 3185 3188 3189 3190 3193 3196 3198 3202 3205 3208 3211 3213 3216 3218 3219 3221 3222 3223 3223 3223 3225 3224 3225 3225 3225 3224 3223 3222 3222 3221 3221
3149 3151 3150 3152 3154 3156 3158 3154 3157 3162 3164 3166 3167 3168 3170 3172 3176 3179 3182 3185 3187 3189 3191 3194 3198 3201 3204 3207 3210 3212 3215 3217 3219 3220 3221 3221 3222 3223 3224 3224 3226 3225 3224 3223 3222 3222 3221 3220 3219
3142 3141 3144 3146 3149 3152 3154 3152 3152 3158 3162 3165 3166 3166 3168 3171 3174 3176 3179 3182 3184 3187 3190 3193 3196 3199 3203 3206 3209 3211 3214 3216 3218 3219 3220 3220 3221 3222 3223 3224 3224 3225 3224 3223 3222 3221 3221 3220 3220
3133 3137 3137 3140 3143 3147 3149 3149 3148 3153 3159 3162 3165 3166 3166 3168 3170 3173 3176 3179 3182 3185 3189 3192 3195 3198 3201 3204 3207 3210 3212 3214 3216 3218 3219 3219 3220 3221 3223 3225 3224 3225 3223 3223 3222 3222 3220 3220 3219
3131 3132 3133 3134 3138 3143 3145 3147 3150 3151 3156 3159 3161 3163 3164 3166 3169 3172 3173 3176 3179 3182 3186 3189 3192 3196 3199 3202 3205 3208 3211 3213 3214 3216 3217 3218 3219 3221 3222 3224 3224 3224 3223 3224 3223 3222 3220 3219 3218
3127 3126 3128 3132 3134 3138 3141 3143 3146 3149 3149 3155 3157 3159 3162 3165 3167 3168 3169 3173 3176 3179 3182 3186 3190 3193 3197 3201 3204 3206 3209 3211 3212 3214 3215 3216 3218 3219 3221 3223 3224 3223 3224 3223 3223 3222 3222 3220 3218
3121 3122 3124 3127 3131 3133 3138 3138 3140 3144 3146 3149 3154 3156 3158 3160 3162 3163 3165 3168 3172 3175 3179 3183 3187 3191 3195 3198 3200 3203 3206 3208 3210 3212 3213 3214 3216 3217 3219 3221 3222 3223 3224 3223 3223 3223 3222 3221 3220
3113 3119 3124 3125 3126 3126 3133 3130 3133 3137 3140 3145 3148 3151 3154 3155 3157 3159 3161 3164 3167 3172 3176 3180 3184 3188 3192 3195 3198 3200 3204 3207 3209 3210 3212 3213 3214 3215 3217 3219 3221 3221 3222 3224 3224 3223 3223 3221 3221
3108 3116 3120 3123 3124 3124 3124 3126 3121 3126 3132 3136 3142 3146 3149 3151 3154 3156 3157 3161 3165 3168 3172 3176 3181 3185 3188 3192 3195 3198 3201 3204 3207 3208 3210 3212 3213 3214 3215 3216 3218 3219 3220 3222 3223 3223 3223 3222 3221
3109 3112 3115 3119 3121 3115 3115 3116 3113 3116 3122 3128 3134 3140 3144 3147 3151 3153 3155 3158 3161 3164 3168 3171 3175 3180 3184 3188 3192 3195 3199 3202 3204 3206 3208 3210 3211 3211 3212 3213 3214 3217 3218 3221 3222 3223 3223 3224 3223
3100 3105 3106 3108 3103 3099 3110 3111 3109 3114 3118 3123 3128 3133 3138 3142 3146 3150 3153 3154 3157 3159 3162 3166 3170 3175 3180 3184 3187 3191 3195 3198 3201 3204 3206 3207 3208 3208 3209 3211 3211 3213 3216 3218 3220 3222 3223 3224 3224
3089 3093 3089 3089 3089 3095 3103 3093 3098 3110 3113 3117 3121 3127 3132 3137 3141 3145 3148 3149 3152 3156 3159 3163 3167 3171 3175 3179 3184 3188 3191 3194 3197 3200 3202 3204 3205 3206 3206 3208 3209 3210 3213 3215 3218 3220 3221 3223 3223
3081 3080 3087 3086 3083 3082 3084 3090 3098 3102 3106 3112 3116 3120 3125 3130 3135 3139 3142 3146 3148 3152 3155 3159 3162 3167 3170 3175 3180 3183 3187 3189 3192 3196 3199 3201 3203 3204 3204 3205 3206 3208 3210 3212 3215 3217 3219 3221 3222
3070 3080 3086 3082 3075 3074 3075 3078 3083 3091 3097 3102 3109 3113 3119 3123 3129 3134 3138 3140 3143 3147 3151 3155 3158 3161 3167 3171 3175 3178 3182 3185 3187 3190 3193 3196 3199 3201 3201 3202 3203 3205 3207 3209 3212 3214 3217 3219 3220
3061 3066 3073 3079 3076 3071 3073 3074 3076 3081 3089 3095 3100 3107 3113 3119 3124 3129 3133 3136 3138 3142 3145 3149 3153 3157 3161 3164 3169 3172 3175 3179 3182 3184 3188 3191 3194 3196 3198 3198 3200 3201 3203 3206 3208 3211 3213 3216 3217
3057 3060 3065 3066 3070 3072 3069 3070 3072 3076 3084 3088 3094 3101 3107 3114 3120 3125 3129 3133 3136 3136 3140 3143 3147 3151 3156 3160 3164 3167 3171 3174 3176 3178 3181 3186 3188 3191 3193 3194 3195 3197 3199 3202 3205 3207 3209 3212 3213